COSMOS 1275 DEB, 14364

Orbit data source: Space-Track

COSMOS 1275 DEB, 14364 is space debris in LEO originally from a launch on Thu, 04 Jun 1981 UTC launched from the Plesetsk Missile And Space Complex (PKMTR). Debris objects in space refer to the collection of defunct objects orbiting the Earth. Examples of debris include non-operational satellites, rocket bodies, and fragments generated from explosions, collisions, or faulty payload assembly.

Loading next visibility...
Identifier
14364, 1981-053HX
Orbit
LEO
Country
Flag of CISCIS
Related business
Manufacturer
Unknown
Mission
Spacecraft
Bus & Motor
Unknown
Mass
Unknown
Launch date (UTC)
1981-06-04 (45 years ago)
Launch vehicle
Unknown
Launch site
Plesetsk Missile And Space Complex (PKMTR)
Object type
Payload
Rocket body
Debris
Shape & HBR
Unknown shape, 0.1 m
Radar Cross Section
Medium (>0.1 m² and <1 m²)

Expand to show TLE details & history
Last TLE update: 2 days ago

TLE from 2 days ago
0 COSMOS 1275 DEB
1 14364U 81053HX  26171.23972257  .00002119  00000-0  88811-3 0  9991
2 14364  82.7756 272.0597 0027725 211.0211 148.9337 14.25416921228044
Epoch: 2026-06-20T05:45Z
TLE epoch observation values (Epoch: 2026-06-20T05:45:12.030Z)
Latitude
0.00001°
Longitude
-82.69762°
Altitude
827.139 km
Speed
7.431 km/s
True Right ascension
18h 08m 14s
True Declination
0° 00' 00"
Sunlit
Object was in full shadow at epoch
Visualization orbit readout
Latitude
Unknown
Longitude
Unknown
Altitude
Unknown
Speed
Unknown
Apparent Right ascension
Unknown
Apparent Declination
Unknown
Sunlit
N/A
Visualization observer readout
Local Sidereal Time
23:20:31
Azimuth
Unknown
Elevation
Unknown
Doppler factor
Unknown
Orbital elements
Apogee altitude
824.09 km
Perigee altitude
784.264 km
Semi-major axis
7,182.314 km
Eccentricity
0.00277
Inclination
82.7756°
RAAN
272.0597°
Arg. of periapsis
211.0211°
True anomaly
149.09716°
Mean anomaly
148.9337°
Eccentric anomaly
149.01548°
Mean motion
3.56571 °/min
Orbital period
100.96 mins
BSTAR
0.00088811
Loading maneuver chart data...
Computing Atmospheric mass density...

Documentation

Showing up to 5 results
|